TimeCDT,TemperatureF,Dew PointF,Humidity,Sea Level PressureIn,VisibilityMPH,Wind Direction,Wind SpeedMPH,Gust SpeedMPH,PrecipitationIn,Events,Conditions,WindDirDegrees,DateUTC
12:15 AM,77.4,49.1,37,29.82,10.0,SE,11.5,-,N/A,,Clear,140,2013-09-26 05:15:00
12:35 AM,77.7,48.2,35,29.81,10.0,SE,13.8,-,N/A,,Clear,140,2013-09-26 05:35:00
12:55 AM,77.0,48.7,37,29.81,10.0,SE,11.5,-,N/A,,Clear,140,2013-09-26 05:55:00
1:15 AM,77.2,48.4,36,29.81,10.0,SE,13.8,-,N/A,,Clear,140,2013-09-26 06:15:00
1:35 AM,76.1,49.3,39,29.81,10.0,SSE,11.5,-,N/A,,Clear,150,2013-09-26 06:35:00
1:55 AM,76.1,49.5,39,29.81,10.0,SSE,12.7,-,N/A,,Clear,150,2013-09-26 06:55:00
2:15 AM,75.4,49.5,40,29.81,10.0,SSE,11.5,-,N/A,,Clear,150,2013-09-26 07:15:00
2:35 AM,75.6,49.6,40,29.82,10.0,SSE,11.5,-,N/A,,Clear,150,2013-09-26 07:35:00
2:55 AM,74.7,50.0,42,29.82,10.0,SSE,10.4,-,N/A,,Clear,160,2013-09-26 07:55:00
3:15 AM,73.8,50.2,43,29.82,10.0,SSE,10.4,-,N/A,,Clear,160,2013-09-26 08:15:00
3:35 AM,74.3,49.6,42,29.82,10.0,SSE,10.4,-,N/A,,Clear,160,2013-09-26 08:35:00
3:55 AM,73.4,50.2,44,29.82,10.0,SSE,10.4,-,N/A,,Clear,160,2013-09-26 08:55:00
4:15 AM,73.4,49.8,43,29.82,10.0,SSE,11.5,-,N/A,,Clear,160,2013-09-26 09:15:00
4:35 AM,73.8,49.3,42,29.82,10.0,SSE,11.5,-,N/A,,Clear,150,2013-09-26 09:35:00
4:55 AM,73.9,49.1,41,29.82,10.0,SSE,13.8,-,N/A,,Clear,160,2013-09-26 09:55:00
5:15 AM,73.8,49.1,42,29.82,10.0,SSE,11.5,-,N/A,,Clear,150,2013-09-26 10:15:00
5:35 AM,74.3,48.9,41,29.83,10.0,SSE,13.8,-,N/A,,Scattered Clouds,150,2013-09-26 10:35:00
5:55 AM,74.3,49.1,41,29.83,10.0,SSE,15.0,-,N/A,,Scattered Clouds,150,2013-09-26 10:55:00
6:15 AM,73.8,49.8,43,29.83,10.0,SSE,15.0,-,N/A,,Clear,160,2013-09-26 11:15:00
6:35 AM,72.9,50.4,45,29.84,10.0,SSE,13.8,-,N/A,,Clear,150,2013-09-26 11:35:00
6:55 AM,72.3,50.7,46,29.85,10.0,SSE,9.2,-,N/A,,Clear,150,2013-09-26 11:55:00
7:15 AM,71.8,50.9,48,29.85,10.0,SSE,11.5,-,N/A,,Clear,150,2013-09-26 12:15:00
7:35 AM,72.1,50.9,47,29.86,10.0,SE,12.7,-,N/A,,Clear,140,2013-09-26 12:35:00
7:55 AM,72.5,51.1,47,29.88,10.0,SE,8.1,-,N/A,,Clear,140,2013-09-26 12:55:00
8:15 AM,73.2,51.6,47,29.88,10.0,SE,5.8,-,N/A,,Clear,130,2013-09-26 13:15:00
8:35 AM,74.7,52.2,45,29.89,10.0,Calm,Calm,-,N/A,,Clear,0,2013-09-26 13:35:00
8:55 AM,76.3,52.5,43,29.90,10.0,SE,5.8,-,N/A,,Scattered Clouds,130,2013-09-26 13:55:00
9:15 AM,78.4,53.4,42,29.90,10.0,SE,8.1,-,N/A,,Scattered Clouds,140,2013-09-26 14:15:00
9:35 AM,80.4,54.1,40,29.90,10.0,SSE,8.1,-,N/A,,Scattered Clouds,150,2013-09-26 14:35:00
9:55 AM,81.5,54.7,40,29.91,10.0,SSE,8.1,-,N/A,,Clear,160,2013-09-26 14:55:00
10:15 AM,83.5,55.6,38,29.91,10.0,South,6.9,-,N/A,,Clear,180,2013-09-26 15:15:00
10:35 AM,86.9,56.3,35,29.91,10.0,SSW,11.5,17.3,N/A,,Clear,210,2013-09-26 15:35:00
10:55 AM,88.2,56.5,34,29.91,10.0,SSW,10.4,-,N/A,,Clear,200,2013-09-26 15:55:00
11:15 AM,88.5,56.5,34,29.91,10.0,SSW,11.5,17.3,N/A,,Clear,200,2013-09-26 16:15:00
11:35 AM,89.8,55.8,31,29.91,10.0,SSW,13.8,18.4,N/A,,Clear,210,2013-09-26 16:35:00
11:55 AM,90.5,55.4,30,29.90,10.0,SSW,10.4,-,N/A,,Clear,210,2013-09-26 16:55:00
12:15 PM,91.6,55.0,29,29.90,10.0,SSW,13.8,17.3,N/A,,Clear,200,2013-09-26 17:15:00
12:35 PM,92.7,55.2,28,29.90,10.0,SSW,15.0,-,N/A,,Clear,200,2013-09-26 17:35:00
12:55 PM,92.8,54.7,27,29.89,10.0,South,16.1,19.6,N/A,,Clear,170,2013-09-26 17:55:00
1:15 PM,93.2,54.5,27,29.89,10.0,South,18.4,21.9,N/A,,Clear,180,2013-09-26 18:15:00
1:35 PM,93.6,54.7,27,29.88,10.0,South,9.2,19.6,N/A,,Clear,180,2013-09-26 18:35:00
1:55 PM,93.6,54.7,27,29.88,10.0,South,13.8,20.7,N/A,,Clear,190,2013-09-26 18:55:00
2:15 PM,94.3,54.9,26,29.87,10.0,South,12.7,17.3,N/A,,Clear,190,2013-09-26 19:15:00
2:35 PM,93.7,54.3,26,29.86,10.0,SSE,10.4,19.6,N/A,,Clear,160,2013-09-26 19:35:00
2:55 PM,95.2,54.5,25,29.86,10.0,South,10.4,19.6,N/A,,Clear,170,2013-09-26 19:55:00
3:15 PM,95.0,54.0,25,29.85,10.0,South,13.8,19.6,N/A,,Clear,170,2013-09-26 20:15:00
3:35 PM,95.5,54.0,25,29.85,10.0,SE,13.8,18.4,N/A,,Clear,130,2013-09-26 20:35:00
3:55 PM,94.5,53.6,25,29.85,10.0,ESE,13.8,24.2,N/A,,Clear,120,2013-09-26 20:55:00
4:15 PM,94.3,53.1,25,29.85,10.0,SSE,15.0,-,N/A,,Clear,150,2013-09-26 21:15:00
4:35 PM,94.3,52.0,24,29.85,10.0,SE,18.4,-,N/A,,Clear,140,2013-09-26 21:35:00
4:55 PM,94.3,51.8,24,29.84,10.0,SE,15.0,20.7,N/A,,Clear,140,2013-09-26 21:55:00
5:15 PM,94.1,51.3,23,29.84,10.0,SSE,12.7,-,N/A,,Clear,160,2013-09-26 22:15:00
5:35 PM,93.9,50.5,23,29.84,10.0,SSE,13.8,19.6,N/A,,Clear,160,2013-09-26 22:35:00
5:55 PM,93.2,52.0,25,29.84,10.0,SE,15.0,-,N/A,,Clear,140,2013-09-26 22:55:00
6:15 PM,92.3,52.7,26,29.84,10.0,SE,13.8,17.3,N/A,,Clear,140,2013-09-26 23:15:00
6:35 PM,91.4,52.5,27,29.85,10.0,SSE,13.8,-,N/A,,Clear,150,2013-09-26 23:35:00
6:55 PM,90.0,52.7,28,29.85,10.0,SSE,12.7,-,N/A,,Clear,150,2013-09-26 23:55:00
7:15 PM,88.7,52.7,29,29.85,10.0,SE,12.7,-,N/A,,Clear,140,2013-09-27 00:15:00
7:35 PM,87.1,52.7,31,29.85,10.0,SSE,10.4,-,N/A,,Clear,150,2013-09-27 00:35:00
7:55 PM,85.6,52.7,32,29.85,10.0,SE,9.2,-,N/A,,Clear,140,2013-09-27 00:55:00
8:15 PM,84.6,52.7,33,29.86,10.0,SE,9.2,-,N/A,,Clear,130,2013-09-27 01:15:00
8:35 PM,84.2,52.7,34,29.86,10.0,SE,10.4,-,N/A,,Clear,130,2013-09-27 01:35:00
8:55 PM,83.7,54.5,37,29.87,10.0,SE,9.2,-,N/A,,Clear,140,2013-09-27 01:55:00
9:15 PM,83.3,55.4,38,29.88,10.0,SE,10.4,-,N/A,,Clear,140,2013-09-27 02:15:00
9:35 PM,82.4,56.1,40,29.88,10.0,SE,9.2,-,N/A,,Clear,140,2013-09-27 02:35:00
9:55 PM,81.5,56.7,42,29.88,10.0,SE,8.1,-,N/A,,Clear,140,2013-09-27 02:55:00
10:15 PM,80.6,57.0,44,29.88,10.0,SE,10.4,-,N/A,,Clear,130,2013-09-27 03:15:00
10:35 PM,80.6,57.2,45,29.89,10.0,SSE,9.2,-,N/A,,Clear,150,2013-09-27 03:35:00
10:55 PM,79.7,57.4,46,29.89,10.0,SSE,9.2,-,N/A,,Clear,150,2013-09-27 03:55:00
11:15 PM,79.0,57.6,48,29.89,10.0,SE,9.2,-,N/A,,Clear,140,2013-09-27 04:15:00
11:35 PM,79.2,58.1,48,29.89,10.0,SSE,10.4,-,N/A,,Clear,150,2013-09-27 04:35:00
11:55 PM,78.8,58.1,49,29.89,10.0,SSE,11.5,-,N/A,,Clear,150,2013-09-27 04:55:00